FENGYUN 1C DEB, 31609

Orbit data source: Space-Track

FENGYUN 1C DEB, 31609 is space debris in SSO originally from a launch on Mon, 10 May 1999 UTC launched from the Taiyaun Space Center, China (TSC). Fengyun 1C debris stems from the Chinese weather satellite Fengyun-1C, which was intentionally destroyed by a Chinese anti-satellite missile in 2007. This event dramatically increased the amount of space debris, with thousands of trackable fragments posing hazards to satellites and human spaceflight. The Fengyun 1C debris cloud has become a focal point in discussions about space sustainability and the need for international regulations to prevent the creation of new debris.

Loading next visibility...
Identifier
31609, 1999-025BZP
Orbit
SSO
Country
Flag of CNCN / PRC
Related business
Manufacturer
Unknown
Mission
Spacecraft
Bus & Motor
Unknown
Mass
Unknown
Launch date (UTC)
1999-05-10 (27 years ago)
Launch vehicle
Unknown
Launch site
Taiyaun Space Center, China (TSC)
Object type
Payload
Rocket body
Debris
Shape & HBR
Unknown shape, 0.1 m
Radar Cross Section
Small (<0.1 m²)

Expand to show TLE details & history
Last TLE update: 17 hours ago

TLE from 17 hours ago
0 FENGYUN 1C DEB
1 31609U 99025BZP 26123.58158285  .00003696  00000-0  17928-2 0  9993
2 31609  99.1977 161.9419 0089452 278.9238 234.5547 14.16935012680928
Epoch: 2026-05-03T13:57Z
TLE epoch observation values (Epoch: 2026-05-03T13:57:28.758Z)
Latitude
27.00934°
Longitude
-84.2015°
Altitude
876.821 km
Speed
7.397 km/s
True Right ascension
23h 06m 36s
True Declination
26° 52' 22"
Sunlit
Object was in daylight at epoch
Visualization orbit readout
Latitude
Unknown
Longitude
Unknown
Altitude
Unknown
Speed
Unknown
Apparent Right ascension
Unknown
Apparent Declination
Unknown
Sunlit
N/A
Visualization observer readout
Local Sidereal Time
14:16:07
Azimuth
Unknown
Elevation
Unknown
Doppler factor
Unknown
Orbital elements
Apogee altitude
897.428 km
Perigee altitude
768.419 km
Semi-major axis
7,211.06 km
Eccentricity
0.00895
Inclination
99.1977°
RAAN
161.9419°
Arg. of periapsis
278.9238°
True anomaly
233.72504°
Mean anomaly
234.5547°
Eccentric anomaly
234.13933°
Mean motion
3.54441 °/min
Orbital period
101.57 mins
BSTAR
0.0017928
Loading maneuver chart data...
Computing Atmospheric mass density...

Documentation

Showing up to 5 results
|